CORIOLIS

Last updated on Thu Nov 21 2024 00:03:26 GMT+0000 (Coordinated Universal Time)

1 27640U 03001A 24325.42050389 .00000266 00000+0 14653-3 0 9995 2 27640 98.7148 330.1713 0015118 67.0555 293.2215 14.19640841132806
UTC large
Height (km)
Speed (km/s)
/
Latitude / Longitude
Inclination (degrees)
Orbital Period (minutes)
Azimuth
Elevation
Range (km)
Doppler Factor

Next 0 passes for location: London (51.5072 / 0.1276)

Sorry there are no passes over London.